sat.trackr.live / text

‹ back to catalog

ONEWEB-0012

NORAD 44057 · 2019-010A

PAYLOAD ACTIVE UNKNOWN

§ Identity

Operator
Country
UK
Launch date
2019-02-27
Launch site
FRGUI
Launch vehicle
Mass (kg)
RCS (m²)

Purposes: comms

External: N2YO · Heavens-Above · Gunter

§ Orbital elements

Epoch: 2026-09-14T07:43:07.215456Z

Period
109.37 min
Inclination
87.9133°
Eccentricity
0.0002464
Mean motion
13.16593439 rev/d
Perigee alt
1,195.9 km
Apogee alt
1,199.6 km
Semi-major
7,575.9 km
B*
3.4047e-4
RAAN
211.0829°
Arg perigee
87.3436°
Mean anomaly
272.7977°
Rev number
36,329

§ Raw data

ONEWEB-00121 44057U 19010A   26257.32161129  .00000143  00000+0  34047-3 0  99962 44057  87.9133 211.0829 0002464  87.3436 272.7977 13.16593439363291

JSON: /api/v1/satellites/44057 · /tle

For live sub-satellite position, see the globe view (requires WebGL).

§ Visibility from observer

Set your observer location to see the next 7 days of passes ≥ 10°. The values pass through the URL so the page stays shareable.

No JS? Fill the form by hand. The geolocation button needs JavaScript.